Weather History for Pecos, TX

Change the Weather History Date:

Sunday, July 14, 2013

  Actual Average Record
Temperature  
Mean Temperature 82 °F -  
Max Temperature 102 °F 97 °F 115 °F (1958)
Min Temperature 63 °F 68 °F 62 °F (1990)
Cooling Degree Days 17    
Growing Degree Days 32 (Base 50)    
Moisture  
Dew Point 45 °F    
Average Humidity 31    
Maximum Humidity 51    
Minimum Humidity 14    
Precipitation  
Precipitation 0.00 in - - ()
Sea Level Pressure  
Sea Level Pressure 29.93 in    
Wind  
Wind Speed 4 mph (SE)    
Max Wind Speed 12 mph    
Max Gust Speed 20 mph    
Visibility 10 miles    
Events      
Averages and records for this station are not official NWS values.
T = Trace of Precipitation, MM = Missing Value Source: NWS Daily Summary

Daily Weather History Graph

Daily Weather History Graph

Search for Another Location

Airport:

Trip Planner

Search our weather history database for the weather conditions in past years. The results will help you decide how hot, cold, wet, or windy it might be!

Date:

Astronomy

Jul. 14, 2013 Rise Set
Actual Time 6:59 AM CDT 8:59 PM CDT
Civil Twilight 6:32 AM CDT 9:27 PM CDT
Nautical Twilight 5:58 AM CDT 10:00 PM CDT
Astronomical Twilight 5:23 AM CDT 10:36 PM CDT
Moon 12:51 PM CDT (7/14) 12:07 AM CDT (7/14)
Length of Visible Light 14h 55m
Length of Day
14h 00m
Waxing Crescent, 35% of the Moon is Illuminated
Jul 14
Waxing Crescent
Jul 15
First Quarter
Jul 22
Full
Jul 29
Last Quarter
Aug 6
New

Hourly Weather History & Observations

Time (CDT) Temp. Dew Point Humidity Pressure Visibility Wind Dir Wind Speed Gust Speed Precip Events Conditions
12:35 AM 81.5 °F 45.0 °F 28% 29.99 in 10.0 mi SSE 8.1 mph - N/A   Clear
12:55 AM 79.9 °F 45.5 °F 30% 29.99 in 10.0 mi SSE 5.8 mph - N/A   Clear
1:35 AM 74.7 °F 45.0 °F 35% 29.99 in 10.0 mi SSE 6.9 mph - N/A   Clear
1:55 AM 75.0 °F 45.7 °F 35% 29.99 in 10.0 mi SSE 4.6 mph - N/A   Clear
2:15 AM 73.0 °F 45.1 °F 37% 29.99 in 10.0 mi SSE 5.8 mph - N/A   Clear
2:35 AM 72.5 °F 45.7 °F 38% 29.99 in 10.0 mi SSE 3.5 mph - N/A   Clear
2:55 AM 72.3 °F 45.1 °F 38% 29.99 in 10.0 mi Calm Calm - N/A   Clear
3:15 AM 71.6 °F 44.8 °F 38% 29.98 in 10.0 mi Calm Calm - N/A   Clear
3:35 AM 70.9 °F 45.0 °F 39% 29.98 in 10.0 mi Calm Calm - N/A   Clear
3:55 AM 70.9 °F 45.0 °F 39% 29.98 in 10.0 mi Calm Calm - N/A   Clear
4:15 AM 68.7 °F 46.0 °F 44% 29.98 in 10.0 mi WNW 3.5 mph - N/A   Clear
4:35 AM 68.0 °F 46.8 °F 47% 29.98 in 10.0 mi WNW 3.5 mph - N/A   Clear
4:55 AM 67.5 °F 46.9 °F 48% 29.98 in 10.0 mi WNW 4.6 mph - N/A   Clear
5:35 AM 68.9 °F 46.4 °F 44% 29.98 in 10.0 mi Calm Calm - N/A   Clear
5:55 AM 67.1 °F 45.5 °F 46% 29.98 in 10.0 mi Calm Calm - N/A   Clear
6:15 AM 67.8 °F 46.2 °F 46% 29.99 in 10.0 mi Calm Calm - N/A   Clear
6:35 AM 67.3 °F 46.2 °F 47% 29.99 in 10.0 mi ENE 5.8 mph - N/A   Clear
6:55 AM 65.3 °F 45.9 °F 49% 29.99 in 10.0 mi Calm Calm - N/A   Clear
7:15 AM 63.9 °F 45.1 °F 51% 30.00 in 10.0 mi Calm Calm - N/A   Clear
7:35 AM 64.8 °F 45.5 °F 50% 30.00 in 10.0 mi Calm Calm - N/A   Clear
7:55 AM 68.2 °F 47.3 °F 47% 30.00 in 10.0 mi Calm Calm - N/A   Clear
8:15 AM 70.9 °F 48.0 °F 44% 29.99 in 10.0 mi Calm Calm - N/A   Clear
9:35 AM 79.7 °F 48.7 °F 34% 30.00 in 10.0 mi Calm Calm - N/A   Clear
11:55 AM 93.9 °F 45.7 °F 19% 29.97 in 10.0 mi SSE 6.9 mph - N/A   Clear
1:35 PM 99.3 °F 44.2 °F 15% 29.93 in 10.0 mi SE 4.6 mph - N/A   Clear
2:15 PM 98.8 °F 43.3 °F 15% 29.92 in 10.0 mi North 4.6 mph 16.1 mph N/A   Clear
4:15 PM 100.8 °F 44.6 °F 15% 29.85 in 10.0 mi West 9.2 mph - N/A   Clear
4:55 PM 101.5 °F 44.6 °F 14% 29.84 in 10.0 mi South 4.6 mph - N/A   Clear
5:15 PM 101.7 °F 43.9 °F 14% 29.83 in 10.0 mi South 8.1 mph - N/A   Clear
5:55 PM 101.3 °F 43.7 °F 14% 29.81 in 10.0 mi East 3.5 mph - N/A   Clear
6:15 PM 101.3 °F 43.2 °F 14% 29.81 in 10.0 mi Calm Calm - N/A   Clear
6:35 PM 100.8 °F 43.0 °F 14% 29.80 in 10.0 mi SE 6.9 mph 19.6 mph N/A   Clear
6:55 PM 100.4 °F 42.3 °F 14% 29.78 in 10.0 mi SE 9.2 mph - N/A   Clear
8:55 PM 94.8 °F 42.3 °F 16% 29.80 in 10.0 mi East 11.5 mph - N/A   Clear
9:35 PM 91.4 °F 41.4 °F 17% 29.80 in 10.0 mi ESE 11.5 mph - N/A   Clear
10:15 PM 88.7 °F 41.5 °F 19% 29.80 in 10.0 mi SE 8.1 mph - N/A   Clear
10:35 PM 87.1 °F 41.5 °F 20% 29.82 in 10.0 mi ESE 6.9 mph - N/A   Clear
11:35 PM 87.8 °F 47.3 °F 25% 29.83 in 10.0 mi SSE 8.1 mph - N/A   Clear
11:55 PM 86.9 °F 47.5 °F 25% 29.84 in 10.0 mi SE 6.9 mph - N/A   Clear